Simultaneous Nadir Overpasses (SNOs) Predictions

Prediction of SNOs between LANDSAT-8 and METOP-B Satellite Orbit:

Table of predicted SNOs for the next 14.0 days since TLE Epoch: 7/6/2024
Index Date (LANDSAT-8) Time (LANDSAT-8) Lat,Lon (LANDSAT-8) SZA (LANDSAT-8 ) Date (METOP-B) Time (METOP-B) Lat,Lon (METOP-B) SZA (METOP-B ) Distance(km) Time Diff (sec)
1 07/08/2024 03:11:01 -81.36, -3.63 118.65 07/08/2024 03:10:01 -81.36, -3.81 118.70 3.10 60
2 07/08/2024 04:00:27 81.37, 164.15 61.37 07/08/2024 04:00:40 81.37, 164.19 61.39 0.73 13
3 07/10/2024 22:45:18 -81.36, 62.77 118.32 07/10/2024 22:44:30 -81.37, 62.89 118.32 2.12 48
4 07/10/2024 23:34:43 81.38,-129.09 61.76 07/10/2024 23:35:09 81.38,-129.14 61.76 1.16 26
5 07/13/2024 18:19:33 -81.36, 129.31 117.91 07/13/2024 18:18:58 -81.37, 129.49 117.90 3.10 35
6 07/13/2024 19:08:59 81.37, -62.96 62.11 07/13/2024 19:09:38 81.37, -62.96 62.13 0.65 39
7 07/16/2024 13:53:48 -81.38,-164.01 117.44 07/16/2024 13:53:27 -81.37,-164.00 117.45 0.33 21
8 07/16/2024 14:43:14 81.38, 3.69 62.58 07/16/2024 14:44:07 81.38, 3.52 62.59 2.86 53
9 07/19/2024 09:28:03 -81.38, -97.58 116.95 07/19/2024 09:27:56 -81.37, -97.59 116.95 0.32 7



Historial Predications of SNOs between LANDSAT-8 and METOP-B
